When you browse on this site, cookies collect data to enhance your experience and personalize the content and advertising you see.
Visit our Privacy Policy to learn more. By continuing to use the site, you agree to this use of cookies and data.
  • En España
  • Lista de países
  • Para 7 días
  • Temperatura del agua
  • Mapa Satelital
  • El tiempo en el mapa
  • Informadores
  • user-avatar
    Iniciar sesión

    Tiempo cada hora Vortihovo

    Hoy, 22 Mayo, Miércoles

    Tiempo Temperatura Precipitaciones Viento Presión Humedad
    00:00 +14°C° 0 mm 2 mps 741 mmHg 93%
    01:00 +14°C° 0 mm 2 mps 741 mmHg 94%
    02:00 +13°C° 0 mm 1 mps 740 mmHg 94%
    03:00 +14°C° 0 mm 1 mps 740 mmHg 93%
    04:00 +14°C° 0 mm 2 mps 740 mmHg 92%
    05:00 +14°C° 0 mm 2 mps 740 mmHg 92%
    06:00 +16°C° 0 mm 2 mps 740 mmHg 86%
    07:00 +17°C° 0 mm 2 mps 739 mmHg 81%
    08:00 +19°C° 0 mm 2 mps 740 mmHg 73%
    09:00 +20°C° 0 mm 2 mps 739 mmHg 70%
    10:00 +21°C° 0 mm 2 mps 739 mmHg 67%
    11:00 +23°C° 0 mm 2 mps 739 mmHg 63%
    12:00 +23°C° 0.6 mm 2 mps 739 mmHg 63%
    13:00 +24°C° 0.6 mm 2 mps 738 mmHg 63%
    14:00 +24°C° 0.6 mm 2 mps 738 mmHg 63%
    15:00 +24°C° 0.7 mm 2 mps 738 mmHg 65%
    16:00 +24°C° 0.7 mm 2 mps 738 mmHg 67%
    17:00 +23°C° 0.7 mm 1 mps 737 mmHg 69%
    18:00 +22°C° 0.6 mm 1 mps 737 mmHg 74%
    19:00 +20°C° 0.6 mm 1 mps 737 mmHg 79%
    20:00 +18°C° 0.6 mm 1 mps 737 mmHg 84%
    21:00 +18°C° 0 mm 1 mps 737 mmHg 85%
    22:00 +16°C° 0 mm 1 mps 737 mmHg 86%
    23:00 +16°C° 0 mm 1 mps 736 mmHg 87%

    Mañana, 23 Mayo, Jueves

    Tiempo Temperatura Precipitaciones Viento Presión Humedad
    00:00 +15°C° 0 mm 1 mps 736 mmHg 88%
    01:00 +15°C° 0 mm 1 mps 736 mmHg 89%
    02:00 +14°C° 0 mm 1 mps 736 mmHg 89%
    03:00 +14°C° 0 mm 1 mps 736 mmHg 89%
    04:00 +15°C° 0 mm 1 mps 736 mmHg 89%
    05:00 +15°C° 0 mm 2 mps 736 mmHg 89%
    06:00 +16°C° 0 mm 2 mps 736 mmHg 85%
    07:00 +18°C° 0 mm 2 mps 736 mmHg 80%
    08:00 +20°C° 0 mm 2 mps 736 mmHg 76%
    09:00 +21°C° 0 mm 3 mps 736 mmHg 70%
    10:00 +22°C° 0 mm 3 mps 736 mmHg 65%
    11:00 +25°C° 0 mm 3 mps 736 mmHg 60%
    12:00 +25°C° 0.1 mm 4 mps 736 mmHg 60%
    13:00 +25°C° 0.1 mm 4 mps 736 mmHg 60%
    14:00 +25°C° 0.1 mm 4 mps 736 mmHg 60%
    15:00 +25°C° 0.3 mm 4 mps 736 mmHg 64%
    16:00 +24°C° 0.3 mm 3 mps 736 mmHg 67%
    17:00 +24°C° 0.3 mm 2 mps 735 mmHg 70%
    18:00 +21°C° 0.1 mm 2 mps 736 mmHg 75%
    19:00 +20°C° 0.1 mm 2 mps 736 mmHg 80%
    20:00 +18°C° 0.1 mm 2 mps 736 mmHg 85%
    21:00 +18°C° 0 mm 1 mps 736 mmHg 87%
    22:00 +16°C° 0 mm 1 mps 736 mmHg 89%
    23:00 +16°C° 0 mm 1 mps 736 mmHg 92%

    Pasado mañana, 24 Mayo, Viernes

    Tiempo Temperatura Precipitaciones Viento Presión Humedad
    00:00 +15°C° 0 mm 1 mps 736 mmHg 93%
    01:00 +15°C° 0 mm 1 mps 737 mmHg 94%
    02:00 +14°C° 0 mm 2 mps 737 mmHg 95%
    03:00 +14°C° 0 mm 2 mps 737 mmHg 96%
    04:00 +14°C° 0 mm 2 mps 737 mmHg 96%
    05:00 +15°C° 0 mm 2 mps 737 mmHg 97%
    06:00 +14°C° 0 mm 3 mps 737 mmHg 94%
    07:00 +16°C° 0 mm 3 mps 738 mmHg 91%
    08:00 +17°C° 0 mm 3 mps 738 mmHg 88%
    09:00 +17°C° 0 mm 3 mps 738 mmHg 86%
    10:00 +18°C° 0 mm 3 mps 738 mmHg 84%
    11:00 +18°C° 0 mm 3 mps 738 mmHg 82%
    12:00 +18°C° 0 mm 3 mps 738 mmHg 81%
    13:00 +19°C° 0 mm 3 mps 738 mmHg 79%
    14:00 +19°C° 0 mm 3 mps 738 mmHg 78%
    15:00 +20°C° 0 mm 3 mps 738 mmHg 78%
    16:00 +20°C° 0 mm 3 mps 737 mmHg 77%
    17:00 +20°C° 0 mm 3 mps 737 mmHg 77%
    18:00 +19°C° 0.3 mm 3 mps 737 mmHg 82%
    19:00 +18°C° 0.3 mm 3 mps 737 mmHg 88%
    20:00 +17°C° 0.3 mm 2 mps 737 mmHg 93%
    21:00 +16°C° 0.7 mm 2 mps 737 mmHg 94%
    22:00 +16°C° 0.7 mm 3 mps 737 mmHg 95%
    23:00 +14°C° 0.7 mm 3 mps 737 mmHg 96%

    25 Mayo, Sábado

    Tiempo Temperatura Precipitaciones Viento Presión Humedad
    00:00 +14°C° 0.7 mm 3 mps 736 mmHg 97%
    01:00 +15°C° 0.7 mm 2 mps 736 mmHg 97%
    02:00 +15°C° 0.7 mm 2 mps 736 mmHg 98%
    03:00 +15°C° 0.1 mm 2 mps 736 mmHg 97%
    04:00 +15°C° 0.1 mm 2 mps 735 mmHg 97%
    05:00 +15°C° 0.1 mm 2 mps 735 mmHg 97%
    06:00 +16°C° 0.1 mm 1 mps 735 mmHg 95%
    07:00 +16°C° 0.1 mm 1 mps 735 mmHg 93%
    08:00 +18°C° 0.1 mm 1 mps 735 mmHg 90%
    09:00 +18°C° 0.5 mm 1 mps 735 mmHg 89%
    10:00 +19°C° 0.5 mm 1 mps 735 mmHg 88%
    11:00 +19°C° 0.5 mm 1 mps 735 mmHg 86%
    12:00 +20°C° 0.7 mm 1 mps 734 mmHg 86%
    13:00 +20°C° 0.7 mm 1 mps 734 mmHg 85%
    14:00 +20°C° 0.7 mm 1 mps 734 mmHg 84%
    15:00 +20°C° 1 mm 1 mps 734 mmHg 86%
    16:00 +19°C° 1 mm 1 mps 733 mmHg 87%
    17:00 +18°C° 1 mm 2 mps 733 mmHg 89%
    18:00 +17°C° 0.1 mm 2 mps 733 mmHg 90%
    19:00 +16°C° 0.1 mm 2 mps 733 mmHg 91%
    20:00 +16°C° 0.1 mm 2 mps 733 mmHg 92%
    21:00 +15°C° 0 mm 2 mps 733 mmHg 91%
    22:00 +13°C° 0 mm 3 mps 734 mmHg 91%
    23:00 +12°C° 0 mm 3 mps 734 mmHg 91%

    26 Mayo, Domingo

    Tiempo Temperatura Precipitaciones Viento Presión Humedad
    00:00 +11°C° 0 mm 3 mps 734 mmHg 93%
    01:00 +10°C° 0 mm 3 mps 734 mmHg 94%
    02:00 +10°C° 0 mm 2 mps 734 mmHg 96%
    03:00 +10°C° 0 mm 2 mps 734 mmHg 96%
    04:00 +9°C° 0 mm 2 mps 735 mmHg 95%
    05:00 +9°C° 0 mm 3 mps 735 mmHg 95%
    06:00 +10°C° 0 mm 3 mps 735 mmHg 90%
    07:00 +11°C° 0 mm 3 mps 735 mmHg 85%
    08:00 +13°C° 0 mm 3 mps 735 mmHg 81%
    09:00 +14°C° 0 mm 3 mps 735 mmHg 74%
    10:00 +15°C° 0 mm 4 mps 735 mmHg 68%
    11:00 +17°C° 0 mm 4 mps 735 mmHg 62%
    12:00 +18°C° 0 mm 4 mps 735 mmHg 60%
    13:00 +18°C° 0 mm 4 mps 735 mmHg 59%
    14:00 +19°C° 0 mm 5 mps 735 mmHg 58%
    15:00 +17°C° 0.1 mm 5 mps 735 mmHg 62%
    16:00 +17°C° 0.1 mm 4 mps 734 mmHg 66%
    17:00 +17°C° 0.1 mm 4 mps 734 mmHg 69%
    18:00 +14°C° 0 mm 3 mps 734 mmHg 77%
    19:00 +13°C° 0 mm 2 mps 734 mmHg 84%
    20:00 +12°C° 0 mm 2 mps 734 mmHg 92%
    21:00 +12°C° 0.2 mm 2 mps 734 mmHg 92%
    22:00 +11°C° 0.2 mm 3 mps 734 mmHg 92%
    23:00 +11°C° 0.2 mm 3 mps 734 mmHg 92%

    27 Mayo, Lunes

    Tiempo Temperatura Precipitaciones Viento Presión Humedad
    00:00 +10°C° 0.2 mm 3 mps 733 mmHg 93%
    01:00 +10°C° 0.2 mm 3 mps 733 mmHg 94%
    02:00 +9°C° 0.2 mm 3 mps 733 mmHg 95%
    03:00 +9°C° 0 mm 3 mps 733 mmHg 95%
    04:00 +7°C° 0 mm 4 mps 733 mmHg 95%
    05:00 +7°C° 0 mm 4 mps 734 mmHg 94%
    06:00 +8°C° 0.1 mm 5 mps 734 mmHg 89%
    07:00 +8°C° 0.1 mm 6 mps 734 mmHg 83%
    08:00 +9°C° 0.1 mm 6 mps 735 mmHg 78%
    09:00 +9°C° 0.2 mm 7 mps 735 mmHg 75%
    10:00 +10°C° 0.2 mm 7 mps 735 mmHg 73%
    11:00 +10°C° 0.2 mm 7 mps 735 mmHg 70%
    12:00 +10°C° 0.1 mm 7 mps 736 mmHg 73%
    13:00 +10°C° 0.1 mm 7 mps 736 mmHg 76%
    14:00 +10°C° 0.1 mm 7 mps 737 mmHg 78%
    15:00 +10°C° 0 mm 6 mps 737 mmHg 77%
    16:00 +11°C° 0 mm 6 mps 737 mmHg 75%
    17:00 +13°C° 0 mm 6 mps 738 mmHg 73%
    18:00 +12°C° 0 mm 5 mps 738 mmHg 77%
    19:00 +11°C° 0 mm 4 mps 739 mmHg 81%
    20:00 +10°C° 0 mm 3 mps 739 mmHg 84%
    21:00 +9°C° 0 mm 3 mps 739 mmHg 87%
    22:00 +8°C° 0 mm 3 mps 740 mmHg 90%
    23:00 +7°C° 0 mm 3 mps 740 mmHg 93%
    Mostrar más